Zurück zum Katalog

USA 269

AktivMilitärGEO
NORAD 41724·PAYLOAD·🇺🇸 United States

Gestartet Jul 28, 2016 von Cape Canaveral Space Force Station

Loading…

TLE

AktuellSource: Mike McCants

Epoche: Sep 15, 2026, 03:49 UTC

1 41724U 16047A   26258.15905519  .00000000  00000-0  00000-0 0    07
2 41724   4.0905  41.4762 0009170 213.3346 146.6185  1.00270000  5300

Verfolge USA 269 in Echtzeit mit AllMySat

Download on the App Store